[[{"header":{"parameterUnit":"m.s-1","parameterCategory":1,"la1":30.2991,"la2":30.254,"lo1":-89.0895,"lo2":-89.0444,"dy":0.0017,"dx":0.0017,"nx":28,"ny":28,"refTime":"2024-08-22T09:00:00:Z","depth":0,"parameterNumber":2,"parameterNumberName":"U-component_of_WINDS"},"data":[0,0,0,0,0,0,0,0,0,0,0,0,0,0,0,0,0,0,0,0,0,0,0,0,0,0,0,0,0,0,0,0,0,0,0,0,0,0,0,0,0,0,0,0,0,0,0,0,0,0,0,0,0,0,0,0,0,0,-6.0395,-6.0398,0,-6.0675,-6.0679,-6.0682,-6.0662,-6.0658,-6.0654,-6.065,-6.0936,-6.0947,-6.0958,0,0,0,0,0,0,0,0,0,0,0,0,0,-5.9842,-5.9852,-6.0395,-6.0398,-6.0402,-6.0675,-6.0679,-6.0683,-6.0663,-6.0658,-6.0652,-6.0648,-6.0932,-6.0946,-6.0959,0,0,0,0,0,0,0,0,0,0,0,0,0,-6.0098,-5.9855,-6.0394,-6.0425,-6.043,-6.0674,-6.0679,-6.0684,-6.0664,-6.0657,-6.0651,-6.0645,-6.0928,-6.0944,-6.0961,-6.1193,0,0,-6.1014,-6.1022,0,0,0,0,0,0,0,0,-6.0083,-6.0118,-6.0417,-6.0423,-6.043,-6.0627,-6.0589,-6.0854,-6.0665,-6.0575,-6.065,-6.0642,-6.0838,-6.0862,-6.0929,-6.1206,-6.1218,-6.1016,-6.1026,-6.1033,-6.1038,0,0,0,0,0,0,0,-6.0066,-6.0106,-6.0506,-6.0421,-6.0429,-6.0424,-6.0454,-6.0639,-6.0738,-6.0582,-6.0582,-6.0615,-6.084,-6.0912,-6.0935,-6.1223,-6.1015,-6.103,-6.1041,-6.1048,-6.1703,-6.1709,0,0,0,0,0,0,-6.0041,-6.0091,-6.0497,-6.0514,-6.0238,-6.0439,-6.0472,-6.057,-6.0736,-6.0755,-6.062,-6.0613,-6.0886,-6.0915,-6.0945,-6.1225,-6.1033,-6.105,-6.1059,-6.1696,-6.1704,-6.1712,0,0,0,0,0,0,-6.0029,-6.0077,-6.0485,-6.0303,-6.0354,-6.0456,-6.0565,-6.0579,-6.065,-6.0765,-6.0782,-6.0675,-6.0882,-6.0921,-6.1131,-6.1234,-6.1057,-6.1073,-6.1687,-6.1698,-6.1708,-6.1786,0,0,0,0,0,0,-6.0014,-6.0073,-6.0162,-6.0305,-6.0364,-6.0667,-6.0572,-6.0589,-6.068,-6.0674,-6.0821,-6.0839,-6.088,-6.1105,-6.1148,-6.1255,-6.1086,-6.1678,-6.1692,-6.1705,-6.1775,-6.1798,-6.1818,0,0,0,0,0,-5.9994,-6.0173,-6.0166,-6.0215,-6.0477,-6.0673,-6.0706,-6.075,-6.0689,-6.0778,-6.0852,-6.0834,-6.1218,-6.1127,-6.1175,-6.1288,-6.1672,-6.1688,-6.1704,-6.1765,-6.1794,-6.1818,0,0,0,0,0,0,-6.0039,-6.0192,-6.0187,-6.0417,-6.0532,-6.0669,-6.0783,-6.0779,-6.0913,-6.0902,-6.0951,-6.0984,-6.1194,-6.1264,-6.116,-6.1521,-6.1437,-6.1463,-6.1467,-6.1495,-6.1516,-6.1493,-6.1101,0,0,0,0,0,-6.0076,-6.0222,-6.0348,-6.0539,-6.0597,-6.0681,-6.0768,-6.0792,-6.0912,-6.096,-6.1049,-6.1167,-6.1314,-6.1409,-6.1551,-6.1787,-6.1817,-6.1889,-6.191,-6.1928,-6.1948,-6.2076,-6.2108,-6.1764,-6.1764,-6.1764,0,0,-6.0153,-6.0255,-6.0344,-6.0551,-6.0643,-6.0792,-6.0721,-6.0883,-6.0994,-6.0985,-6.1187,-6.1258,-6.1392,-6.1616,-6.1719,-6.168,-6.2051,-6.1948,-6.1961,-6.1972,-6.2095,-6.2128,-6.2157,-6.1775,-6.1773,-6.1771,0,0,-6.0368,-6.0462,-6.063,-6.0724,-6.0864,-6.0919,-6.096,-6.1098,-6.1144,-6.1349,-6.1345,-6.1479,-6.1731,-6.1826,-6.1908,-6.2163,-6.215,-6.2208,-6.2319,-6.2443,-6.247,-6.2495,-6.2582,-6.2613,-6.2229,-6.223,-6.223,0,-6.0446,-6.067,-6.0717,-6.088,-6.097,-6.0971,-6.1141,-6.1231,-6.141,-6.1472,-6.1427,-6.1743,-6.1834,-6.2079,-6.2141,-6.2209,-6.2255,-6.2189,-6.2463,-6.2488,-6.2511,-6.2595,-6.2628,-6.2235,-6.2235,-6.2234,-6.2234,0,-6.0757,-6.0914,-6.1033,-6.1206,-6.1311,-6.1477,-6.1548,-6.1649,-6.1666,-6.1725,-6.1933,-6.2044,-6.2206,-6.2268,-6.2285,-6.2516,-6.2486,-6.2452,-6.2367,-6.2549,-6.2628,-6.2661,-6.2244,-6.2241,-6.224,-6.2238,0,0,-6.1004,-6.1202,-6.1245,-6.1322,-6.1479,-6.16,-6.1767,-6.1927,-6.2011,-6.2137,-6.2275,-6.249,-6.246,-6.2552,-6.2582,-6.2692,-6.2882,-6.2644,-6.2647,-6.268,-6.3139,-6.316,-6.3196,-6.2878,-6.2884,-6.289,-6.3126,0,-6.1231,-6.1525,-6.1573,-6.183,-6.1974,-6.1979,-6.2124,-6.2235,-6.2297,-6.2428,-6.2496,-6.2646,-6.2596,-6.2652,-6.2761,-6.2836,-6.2974,-6.282,-6.3005,-6.3011,-6.2965,-6.3239,-6.3261,-6.3479,-6.3158,-6.3164,-6.3168,0,-6.1534,-6.1667,-6.1938,-6.2075,-6.2137,-6.2266,-6.2416,-6.2543,-6.267,-6.2707,-6.2812,-6.2829,-6.3001,-6.2914,-6.3151,-6.3045,-6.3125,-6.3174,-6.3183,-6.3197,-6.3096,-6.3255,-6.355,-6.358,-6.3218,-6.3214,-6.321,0,-6.1681,-6.1928,-6.2122,-6.2189,-6.2355,-6.2445,-6.2518,-6.264,-6.2733,-6.2865,-6.2926,-6.3077,-6.3159,-6.3275,-6.3332,-6.3264,-6.3565,-6.3483,-6.3598,-6.3596,-6.3656,-6.365,-6.3962,-6.3717,-6.3716,-6.3715,-6.3715,0,-6.1926,-6.2091,-6.219,-6.2308,-6.2493,-6.2549,-6.273,-6.2801,-6.291,-6.3042,-6.3058,-6.3182,-6.3252,-6.3387,-6.3434,-6.3621,-6.3659,-6.3692,-6.3701,-6.3688,-6.3683,-6.3736,-6.372,-6.3724,-6.3722,-6.372,-6.3719,0,-6.2118,-6.2191,-6.2402,-6.2542,-6.2582,-6.2711,-6.2831,-6.2947,-6.301,-6.3177,-6.3219,-6.3317,-6.3477,-6.3547,-6.3744,-6.3775,-6.3988,-6.3989,-6.3944,-6.3946,-6.4055,-6.4042,-6.4407,-6.4456,-6.4183,-6.4186,-6.4188,0,-6.2266,-6.2393,-6.2548,-6.2637,-6.2713,-6.2858,-6.2953,-6.3014,-6.3113,-6.3268,-6.3365,-6.3525,-6.3655,-6.391,-6.3998,-6.4148,-6.415,-6.4268,-6.4172,-6.4154,-6.4146,-6.4135,-6.4147,-6.4283,-6.4286,-6.4288,-6.429,0,-6.2521,-6.2551,-6.2688,-6.2838,-6.2951,-6.3073,-6.3191,-6.3265,-6.3344,-6.3455,-6.3618,-6.3719,-6.392,-6.4078,-6.4235,-6.431,-6.4313,-6.4321,-6.4354,-6.4338,-6.4304,-6.4319,-6.3985,-6.431,-6.4308,-6.4306,-6.4305,-6.4305,-6.2692,-6.2804,-6.293,-6.3082,-6.3178,-6.3289,-6.3404,-6.3482,-6.3619,-6.3787,-6.3816,-6.3989,-6.4115,-6.4325,-6.4407,-6.4543,-6.4514,-6.4564,-6.4575,-6.4585,-6.4589,-6.4288,-6.4573,-6.4572,-6.4572,-6.4571,-6.4571,0,-6.2942,-6.3025,-6.3164,-6.333,-6.3449,-6.3445,-6.3577,-6.3677,-6.3829,-6.3946,-6.4075,-6.4262,-6.4416,-6.4518,-6.4674,-6.4763,-6.4768,-6.4801,-6.4792,-6.4809,-6.4609,-6.4562,-6.4795,-6.4794,-6.4794,-6.4794,-6.4794,-6.4794,-6.3086,-6.3275,-6.3321,-6.3558,-6.3639,-6.3809,-6.3884,-6.3986,-6.408,-6.4288,-6.4416,-6.4483,-6.4594,-6.4759,-6.4899,-6.4926,-6.498,-6.5014,-6.5038,-6.4847,-6.4823,-6.4801,-6.4756,-6.5026,-6.5027,-6.5226,-6.5228,-6.5229]},{"header":{"parameterUnit":"m.s-1","parameterCategory":1,"la1":30.2991,"la2":30.254,"lo1":-89.0895,"lo2":-89.0444,"dy":0.0017,"dx":0.0017,"nx":28,"ny":28,"refTime":"2024-08-22T09:00:00:Z","depth":0,"parameterNumber":3,"parameterNumberName":"V-component_of_WINDS"},"data":[0,0,0,0,0,0,0,0,0,0,0,0,0,0,0,0,0,0,0,0,0,0,0,0,0,0,0,0,0,0,0,0,0,0,0,0,0,0,0,0,0,0,0,0,0,0,0,0,0,0,0,0,0,0,0,0,0,0,-0.5483,-0.5483,0,-0.5492,-0.5493,-0.5493,-0.5561,-0.5563,-0.5565,-0.5566,-0.5567,-0.5566,-0.5564,0,0,0,0,0,0,0,0,0,0,0,0,0,-0.5519,-0.5518,-0.5483,-0.5483,-0.5484,-0.5492,-0.5493,-0.5493,-0.5561,-0.5563,-0.5565,-0.5567,-0.5568,-0.5566,-0.5564,0,0,0,0,0,0,0,0,0,0,0,0,0,-0.5513,-0.5517,-0.5483,-0.5519,-0.5522,-0.5492,-0.5493,-0.5493,-0.5561,-0.5563,-0.5566,-0.5568,-0.5569,-0.5566,-0.5564,-0.5498,0,0,-0.5557,-0.5556,0,0,0,0,0,0,0,0,-0.5513,-0.5511,-0.5514,-0.5516,-0.552,-0.5529,-0.5506,-0.5494,-0.556,-0.5546,-0.5566,-0.5569,-0.5552,-0.5551,-0.5547,-0.5498,-0.5498,-0.5557,-0.5555,-0.5554,-0.5554,0,0,0,0,0,0,0,-0.5513,-0.5511,-0.5487,-0.5513,-0.5517,-0.5532,-0.5534,-0.5504,-0.5534,-0.5547,-0.5552,-0.5553,-0.5554,-0.5549,-0.5547,-0.5498,-0.5557,-0.5555,-0.5553,-0.5552,-0.5394,-0.5392,0,0,0,0,0,0,-0.551,-0.5511,-0.5486,-0.5487,-0.5523,-0.553,-0.5532,-0.5523,-0.5535,-0.5539,-0.5551,-0.5556,-0.5552,-0.555,-0.5548,-0.5469,-0.5554,-0.5552,-0.5551,-0.5397,-0.5394,-0.5391,0,0,0,0,0,0,-0.551,-0.5507,-0.5486,-0.5501,-0.5499,-0.5526,-0.5516,-0.5522,-0.5517,-0.5537,-0.5542,-0.554,-0.5554,-0.5551,-0.551,-0.547,-0.5551,-0.5549,-0.54,-0.5396,-0.5392,-0.5313,0,0,0,0,0,0,-0.5511,-0.5507,-0.5483,-0.55,-0.5498,-0.545,-0.5514,-0.552,-0.5514,-0.5521,-0.5529,-0.5533,-0.5556,-0.5513,-0.5508,-0.5469,-0.5547,-0.5404,-0.5398,-0.5393,-0.5319,-0.5307,-0.5296,0,0,0,0,0,-0.5512,-0.5459,-0.5482,-0.5478,-0.547,-0.5448,-0.5446,-0.5476,-0.551,-0.5486,-0.5499,-0.5532,-0.5477,-0.5509,-0.5503,-0.5462,-0.5406,-0.54,-0.5394,-0.5324,-0.5309,-0.5296,0,0,0,0,0,0,-0.5434,-0.5462,-0.5487,-0.5439,-0.5441,-0.5459,-0.5429,-0.5459,-0.545,-0.5456,-0.5492,-0.5493,-0.5446,-0.5451,-0.5486,-0.5399,-0.5447,-0.544,-0.5396,-0.5382,-0.5371,-0.5368,-0.5545,0,0,0,0,0,-0.5412,-0.5394,-0.5419,-0.5373,-0.5373,-0.5401,-0.5393,-0.5416,-0.5418,-0.5418,-0.5429,-0.5427,-0.541,-0.5397,-0.5382,-0.5322,-0.5323,-0.5291,-0.528,-0.527,-0.5261,-0.5228,-0.5213,-0.537,-0.537,-0.537,0,0,-0.5365,-0.5378,-0.5364,-0.5358,-0.5362,-0.534,-0.5401,-0.5375,-0.5359,-0.5414,-0.5376,-0.5383,-0.5384,-0.5333,-0.5311,-0.5336,-0.5219,-0.5262,-0.5254,-0.5251,-0.522,-0.5205,-0.5192,-0.5366,-0.5367,-0.5367,0,0,-0.5266,-0.5276,-0.5238,-0.5242,-0.5249,-0.5269,-0.526,-0.5274,-0.5282,-0.5246,-0.5286,-0.5266,-0.5236,-0.5234,-0.5229,-0.5133,-0.5161,-0.5127,-0.5064,-0.5031,-0.5018,-0.5008,-0.497,-0.4956,-0.5119,-0.5119,-0.5119,0,-0.5205,-0.5176,-0.5215,-0.5187,-0.5182,-0.5235,-0.5195,-0.5197,-0.5197,-0.5191,-0.522,-0.5183,-0.5187,-0.5135,-0.5112,-0.5108,-0.5096,-0.5124,-0.5018,-0.5007,-0.4998,-0.4962,-0.4948,-0.5115,-0.5115,-0.5116,-0.5116,0,-0.51,-0.5079,-0.5048,-0.5049,-0.5042,-0.5008,-0.5039,-0.5026,-0.5051,-0.5066,-0.5027,-0.5036,-0.5022,-0.5013,-0.5036,-0.4964,-0.4978,-0.5012,-0.5061,-0.4977,-0.4944,-0.4931,-0.5108,-0.511,-0.5111,-0.5112,0,0,-0.4948,-0.4974,-0.4961,-0.4962,-0.4975,-0.4958,-0.4927,-0.4917,-0.4904,-0.4904,-0.4875,-0.485,-0.4881,-0.4876,-0.4899,-0.4871,-0.479,-0.4908,-0.4908,-0.4882,-0.4708,-0.4679,-0.4663,-0.4812,-0.481,-0.4808,-0.4707,0,-0.4851,-0.48,-0.4835,-0.4777,-0.4757,-0.4808,-0.478,-0.4784,-0.4798,-0.4781,-0.4796,-0.4776,-0.4821,-0.4818,-0.4793,-0.4805,-0.4755,-0.4814,-0.4782,-0.478,-0.4776,-0.4646,-0.4616,-0.452,-0.4694,-0.4692,-0.4691,0,-0.473,-0.4726,-0.4667,-0.4684,-0.4677,-0.4651,-0.4645,-0.463,-0.4634,-0.4646,-0.4641,-0.4672,-0.464,-0.4692,-0.4646,-0.4685,-0.4675,-0.468,-0.4677,-0.4671,-0.4727,-0.4633,-0.4491,-0.4474,-0.4671,-0.4673,-0.4674,0,-0.4621,-0.4602,-0.4564,-0.4563,-0.4583,-0.4563,-0.457,-0.4578,-0.457,-0.4564,-0.4558,-0.4548,-0.454,-0.453,-0.4557,-0.4593,-0.4506,-0.4561,-0.4512,-0.4511,-0.4487,-0.4487,-0.4336,-0.4488,-0.4488,-0.4488,-0.4489,0,-0.4506,-0.4467,-0.4515,-0.449,-0.4448,-0.4488,-0.4444,-0.4456,-0.4462,-0.4439,-0.4484,-0.4461,-0.45,-0.448,-0.4501,-0.4458,-0.4455,-0.4462,-0.4466,-0.4455,-0.4454,-0.4445,-0.4451,-0.4484,-0.4485,-0.4486,-0.4487,0,-0.4375,-0.4406,-0.4367,-0.439,-0.4395,-0.4362,-0.438,-0.4358,-0.4377,-0.4347,-0.4343,-0.4371,-0.435,-0.4378,-0.4359,-0.4373,-0.4313,-0.433,-0.4312,-0.4315,-0.4263,-0.4266,-0.4098,-0.4076,-0.4245,-0.4244,-0.4242,0,-0.4297,-0.4268,-0.4289,-0.4279,-0.4284,-0.4266,-0.4259,-0.4297,-0.4287,-0.4291,-0.4267,-0.4251,-0.424,-0.4204,-0.4221,-0.4207,-0.4221,-0.4164,-0.4219,-0.4208,-0.4215,-0.4215,-0.4211,-0.415,-0.4148,-0.4147,-0.4145,0,-0.4154,-0.4172,-0.4161,-0.4155,-0.4146,-0.4143,-0.4143,-0.4131,-0.4172,-0.4158,-0.4139,-0.413,-0.4113,-0.4095,-0.4086,-0.409,-0.4122,-0.4129,-0.4116,-0.4101,-0.409,-0.4092,-0.4276,-0.4131,-0.4133,-0.4134,-0.4134,-0.4135,-0.4045,-0.4021,-0.4032,-0.4018,-0.4024,-0.4023,-0.4002,-0.402,-0.4006,-0.3996,-0.402,-0.3995,-0.4,-0.3991,-0.3992,-0.3971,-0.3996,-0.3978,-0.3973,-0.3966,-0.3957,-0.4098,-0.397,-0.3971,-0.3971,-0.3971,-0.3972,0,-0.3901,-0.3912,-0.3899,-0.3899,-0.3887,-0.3925,-0.3927,-0.3913,-0.3892,-0.3895,-0.3885,-0.3862,-0.3845,-0.3863,-0.3849,-0.3828,-0.3843,-0.3823,-0.3822,-0.3822,-0.3938,-0.3948,-0.3811,-0.3811,-0.3811,-0.3811,-0.3811,-0.3811,-0.3825,-0.3786,-0.3805,-0.3769,-0.378,-0.3757,-0.3755,-0.3753,-0.3757,-0.373,-0.3718,-0.3731,-0.3739,-0.3727,-0.3712,-0.3718,-0.3708,-0.3682,-0.3692,-0.3798,-0.3814,-0.3829,-0.3839,-0.3681,-0.3681,-0.3577,-0.3576,-0.3576]}]]